CAPE
1295 1416 1454 1511 1576 1740 1934 2148 2787 2276 1970 1575 1181 854 770 587 134 7 0 0 0 0 0 0 0 0 0 0 0 0 1 45 40 37 74 102 60 26 61 135 208 198 147
1412 1568 1817 2032 2164 2364 2656 2907 2403 2031 1706 1196 751 500 86 0 0 0 0 0 0 0 0 0 0 0 0 0 0 0 1 16 80 66 84 87 50 88 167 216 147 200 137
1687 2010 2454 2575 2719 2801 2741 2167 1784 1377 922 639 99 2 0 0 0 0 0 0 0 0 0 0 0 0 0 0 0 0 0 0 30 184 108 83 53 128 117 114 60 98 0
2112 2326 2791 2692 2584 2354 1997 1425 1044 712 276 79 0 0 0 0 0 0 0 0 0 0 0 0 0 0 0 0 0 0 1 0 0 144 197 144 18 1 58 52 3 0 0
2619 2783 2666 2399 2145 1645 1290 918 501 205 64 0 0 0 0 0 0 0 0 0 0 0 0 0 0 0 0 0 0 0 0 0 1 71 54 5 0 2 17 38 2 8 3
2833 2626 2275 1973 1577 1120 866 352 164 45 2 0 0 0 0 0 0 0 0 0 0 0 0 0 0 0 0 0 0 0 1 2 2 7 1 0 1 2 4 2 20 16 10
2466 2185 1815 1464 1095 830 302 153 27 12 0 0 0 0 0 0 0 0 0 0 0 0 0 0 0 0 0 0 0 0 0 0 0 1 0 0 2 0 1 0 1 3 1
2015 1740 1417 1094 740 337 136 26 17 0 0 0 0 0 0 0 0 0 0 0 0 0 0 0 0 0 0 0 0 0 0 0 0 0 0 0 0 0 0 0 0 0 0
1668 1432 993 602 315 65 7 10 1 0 0 0 0 0 0 0 0 0 0 0 0 0 0 0 0 0 0 0 0 0 0 0 0 0 0 0 0 0 0 0 0 0 0
1373 871 440 173 53 3 0 0 0 0 0 0 0 0 0 0 0 0 0 0 0 0 0 0 0 0 0 0 0 0 0 0 0 0 0 0 0 0 0 0 0 0 0
692 283 96 27 2 0 0 0 0 0 0 0 0 0 0 0 0 0 0 0 0 0 0 0 0 0 0 0 0 0 0 0 0 0 0 0 0 0 0 0 0 0 0
83 16 0 0 0 0 0 0 0 0 0 0 0 0 0 0 0 0 0 0 0 0 0 0 0 0 0 0 0 0 0 0 0 0 0 0 0 0 0 0 0 0 0
0 0 0 0 0 0 0 0 0 0 0 0 0 0 0 0 0 0 0 0 0 0 0 0 0 0 0 0 0 0 0 0 0 0 0 0 0 0 0 0 0 0 0
0 0 0 0 0 0 0 0 0 0 0 0 0 0 0 0 0 0 0 0 0 0 0 0 0 0 0 0 0 0 0 0 0 0 0 0 0 0 0 0 0 0 0
0 0 0 0 0 0 0 0 0 0 0 0 0 0 0 0 0 0 0 0 0 0 0 0 0 0 0 0 0 0 0 0 0 0 0 0 0 0 0 0 0 0 0
0 0 0 0 0 0 0 0 0 0 0 0 0 0 0 0 0 0 0 0 0 0 0 0 0 0 0 0 0 0 0 0 0 0 0 0 0 0 0 0 0 0 0
0 0 0 0 0 0 0 0 0 0 0 0 0 0 0 0 0 0 0 0 0 0 0 0 0 0 0 0 0 0 0 0 0 0 0 0 0 0 0 0 0 0 0
0 0 0 0 0 0 0 0 0 0 0 0 0 0 0 0 0 0 0 0 0 0 0 0 0 0 0 0 0 0 0 0 0 0 0 0 0 0 0 0 0 0 0
0 0 0 0 0 0 0 0 0 0 0 0 0 0 0 0 0 0 0 0 0 0 0 0 0 0 0 0 0 0 0 0 0 0 0 0 0 0 0 0 0 0 0
0 0 0 0 0 0 0 0 0 0 0 0 0 0 0 0 0 0 0 0 0 0 0 0 0 0 0 0 0 0 0 0 0 0 0 0 0 0 0 0 0 0 0
0 0 0 0 0 0 0 0 0 0 0 0 0 0 0 0 0 0 0 0 0 0 0 0 0 0 0 0 0 0 0 0 0 0 0 0 0 0 0 0 0 0 0
0 0 0 0 0 0 0 0 0 0 0 0 0 0 0 0 0 0 0 0 0 0 0 0 0 0 0 0 0 0 0 0 0 0 0 0 0 0 0 0 0 0 0
0 0 0 0 0 0 0 0 0 0 0 0 0 0 0 0 0 0 0 0 0 0 0 0 0 0 0 0 0 0 0 0 0 0 0 0 0 0 0 0 0 0 0
0 0 0 0 0 0 0 0 0 0 0 0 0 0 0 0 0 0 0 0 0 0 0 0 0 0 0 0 0 0 0 0 0 0 0 0 0 0 0 0 0 0 0
0 0 0 0 0 0 0 0 0 0 0 0 0 0 0 0 0 0 0 0 0 0 0 0 0 0 0 0 0 0 0 0 0 0 0 0 0 0 0 0 0 0 0
0 0 0 0 0 0 0 0 0 0 0 0 0 0 0 0 0 0 0 0 0 0 0 0 0 0 0 0 0 0 0 0 0 0 0 0 0 0 0 0 0 0 0
CIN
-318 -310 -298 -269 -226 -179 -121 -69 -7 -34 -46 -59 -117 -168 -163 -215 -446 -172 -0 -0 -0 -0 -0 -0 -0 -0 -0 -0 -0 -0 -9 -105 -97 -198 -106 -117 -211 -245 -223 -157 -94 -80 -103
-327 -308 -273 -216 -170 -123 -61 -16 -56 -93 -132 -193 -293 -346 -493 -0 -0 -0 -0 -0 -0 -0 -0 -0 -0 -0 -0 -0 -0 -0 -11 -82 -15 -40 -60 -155 -204 -168 -99 -102 -132 -81 -99
-320 -275 -221 -183 -136 -97 -79 -127 -174 -214 -288 -331 -532 -250 -0 -0 -0 -0 -0 -0 -0 -0 -0 -0 -0 -0 -0 -0 -0 -0 -0 -0 -73 -51 -78 -118 -179 -102 -125 -116 -177 -157 -0
-304 -255 -175 -176 -158 -163 -186 -270 -310 -391 -536 -619 -0 -0 -0 -0 -0 -0 -0 -0 -0 -0 -0 -0 -0 -0 -0 -0 -0 -0 -0 -0 -0 -95 -40 -40 -147 -99 -65 -80 -48 -0 -0
-255 -207 -214 -226 -225 -278 -317 -364 -477 -587 -668 -0 -0 -0 -0 -0 -0 -0 -0 -0 -0 -0 -0 -0 -0 -0 -0 -0 -0 -0 -0 -0 -0 -44 -28 -16 -0 -0 -82 -38 -14 -42 -88
-265 -262 -274 -284 -319 -380 -391 -532 -616 -703 -760 -0 -0 -0 -0 -0 -0 -0 -0 -0 -0 -0 -0 -0 -0 -0 -0 -0 -0 -0 -0 -0 -0 -7 -0 -0 -0 -0 -71 -28 -8 -6 -19
-331 -329 -338 -360 -397 -435 -593 -652 -747 -758 -0 -0 -0 -0 -0 -0 -0 -0 -0 -0 -0 -0 -0 -0 -0 -0 -0 -0 -0 -0 -0 -0 -0 -0 -0 -0 -0 -0 -0 -0 -18 -11 -0
-385 -386 -399 -436 -492 -586 -678 -784 -777 -0 -0 -0 -0 -0 -0 -0 -0 -0 -0 -0 -0 -0 -0 -0 -0 -0 -0 -0 -0 -0 -0 -0 -0 -0 -0 -0 -0 -0 -0 -0 -6 -0 -0
-417 -414 -485 -561 -608 -769 -839 -802 -118 -0 -0 -0 -0 -0 -0 -0 -0 -0 -0 -0 -0 -0 -0 -0 -0 -0 -0 -0 -0 -0 -0 -0 -0 -0 -0 -0 -0 -0 -0 -0 -0 -0 -0
-415 -513 -625 -702 -791 -467 -0 -0 -0 -0 -0 -0 -0 -0 -0 -0 -0 -0 -0 -0 -0 -0 -0 -0 -0 -0 -0 -0 -0 -0 -0 -0 -0 -0 -0 -0 -0 -0 -0 -0 -0 -0 -0
-562 -671 -767 -809 -475 -0 -0 -0 -0 -0 -0 -0 -0 -0 -0 -0 -0 -0 -0 -0 -0 -0 -0 -0 -0 -0 -0 -0 -0 -0 -0 -0 -0 -0 -0 -0 -0 -0 -0 -0 -0 -0 -0
-789 -878 -133 -0 -0 -0 -0 -0 -0 -0 -0 -0 -0 -0 -0 -0 -0 -0 -0 -0 -0 -0 -0 -0 -0 -0 -0 -0 -0 -0 -0 -0 -0 -0 -0 -0 -0 -0 -0 -0 -0 -0 -0
-0 -0 -0 -0 -0 -0 -0 -0 -0 -0 -0 -0 -0 -0 -0 -0 -0 -0 -0 -0 -0 -0 -0 -0 -0 -0 -0 -0 -0 -0 -0 -0 -0 -0 -0 -0 -0 -0 -0 -0 -0 -0 -0
-0 -0 -0 -0 -0 -0 -0 -0 -0 -0 -0 -0 -0 -0 -0 -0 -0 -0 -0 -0 -0 -0 -0 -0 -0 -0 -0 -0 -0 -0 -0 -0 -0 -0 -0 -0 -0 -0 -0 -0 -0 -0 -0
-0 -0 -0 -0 -0 -0 -0 -0 -0 -0 -0 -0 -0 -0 -0 -0 -0 -0 -0 -0 -0 -0 -0 -0 -0 -0 -0 -0 -0 -0 -0 -0 -0 -0 -0 -0 -0 -0 -0 -0 -0 -0 -0
-0 -0 -0 -0 -0 -0 -0 -0 -0 -0 -0 -0 -0 -0 -0 -0 -0 -0 -0 -0 -0 -0 -0 -0 -0 -0 -0 -0 -0 -0 -0 -0 -0 -0 -0 -0 -0 -0 -0 -0 -0 -0 -0
-0 -0 -0 -0 -0 -0 -0 -0 -0 -0 -0 -0 -0 -0 -0 -0 -0 -0 -0 -0 -0 -0 -0 -0 -0 -0 -0 -0 -0 -0 -0 -0 -0 -0 -0 -0 -0 -0 -0 -0 -0 -0 -0
-0 -0 -0 -0 -0 -0 -0 -0 -0 -0 -0 -0 -0 -0 -0 -0 -0 -0 -0 -0 -0 -0 -0 -0 -0 -0 -0 -0 -0 -0 -0 -0 -0 -0 -0 -0 -0 -0 -0 -0 -0 -0 -0
-0 -0 -0 -0 -0 -0 -0 -0 -0 -0 -0 -0 -0 -0 -0 -0 -0 -0 -0 -0 -0 -0 -0 -0 -0 -0 -0 -0 -0 -0 -0 -0 -0 -0 -0 -0 -0 -0 -0 -0 -0 -0 -0
-0 -0 -0 -0 -0 -0 -0 -0 -0 -0 -0 -0 -0 -0 -0 -0 -0 -0 -0 -0 -0 -0 -0 -0 -0 -0 -0 -0 -0 -0 -0 -0 -0 -0 -0 -0 -0 -0 -0 -0 -0 -0 -0
-0 -0 -0 -0 -0 -0 -0 -0 -0 -0 -0 -0 -0 -0 -0 -0 -0 -0 -0 -0 -0 -0 -0 -0 -0 -0 -0 -0 -0 -0 -0 -0 -0 -0 -0 -0 -0 -0 -0 -0 -0 -0 -0
-0 -0 -0 -0 -0 -0 -0 -0 -0 -0 -0 -0 -0 -0 -0 -0 -0 -0 -0 -0 -0 -0 -0 -0 -0 -0 -0 -0 -0 -0 -0 -0 -0 -0 -0 -0 -0 -0 -0 -0 -0 -0 -0
-0 -0 -0 -0 -0 -0 -0 -0 -0 -0 -0 -0 -0 -0 -0 -0 -0 -0 -0 -0 -0 -0 -0 -0 -0 -0 -0 -0 -0 -0 -0 -0 -0 -0 -0 -0 -0 -0 -0 -0 -0 -0 -0
-0 -0 -0 -0 -0 -0 -0 -0 -0 -0 -0 -0 -0 -0 -0 -0 -0 -0 -0 -0 -0 -0 -0 -0 -0 -0 -0 -0 -0 -0 -0 -0 -0 -0 -0 -0 -0 -0 -0 -0 -0 -0 -0
-0 -0 -0 -0 -0 -0 -0 -0 -0 -0 -0 -0 -0 -0 -0 -0 -0 -0 -0 -0 -0 -0 -0 -0 -0 -0 -0 -0 -0 -0 -0 -0 -0 -0 -0 -0 -0 -0 -0 -0 -0 -0 -0
-0 -0 -0 -0 -0 -0 -0 -0 -0 -0 -0 -0 -0 -0 -0 -0 -0 -0 -0 -0 -0 -0 -0 -0 -0 -0 -0 -0 -0 -0 -0 -0 -0 -0 -0 -0 -0 -0 -0 -0 -0 -0 -0
Wind_Speed
12 11 11 9 7 6 5 6 10 16 18 20 22 25 26 28 29 30 31 33 34 34 35 37 37 37 37 38 40 40 39 39 40 42 40 38 41 42 40 38 38 36 34
12 11 10 8 8 7 7 11 14 16 17 19 22 25 27 29 31 32 32 33 34 35 36 37 36 36 38 39 39 39 39 38 39 44 43 43 41 39 37 38 37 35 36
12 11 9 8 7 6 9 11 13 15 18 22 25 26 27 29 31 33 33 33 34 33 33 34 36 37 37 39 38 39 37 36 36 39 43 40 39 37 39 37 38 37 38
11 10 7 6 7 9 9 11 13 16 19 23 24 26 28 30 32 34 34 33 32 32 31 33 35 34 37 38 37 37 35 33 30 29 36 38 39 39 36 37 38 38 40
9 7 6 6 7 7 9 10 13 16 20 23 25 26 28 30 32 35 33 32 31 32 31 31 32 34 37 35 34 33 29 25 21 13 7 32 34 36 35 31 36 38 38
6 5 6 6 6 6 8 11 13 16 19 21 24 26 28 30 32 33 33 30 32 31 32 32 32 35 37 34 31 30 24 21 17 13 6 19 28 33 30 33 34 38 38
4 4 4 4 4 6 8 10 12 15 18 21 23 25 27 28 30 33 33 30 30 33 32 33 32 33 37 33 29 27 23 22 19 14 7 7 13 21 30 26 21 21 36
2 1 2 3 4 5 7 9 11 14 17 19 22 23 26 27 30 32 31 30 30 31 33 32 32 34 36 32 30 28 26 25 24 18 15 8 13 7 5 7 11 14 17
1 0 1 2 4 4 6 9 11 14 16 18 19 21 23 26 29 31 30 28 30 30 30 30 30 33 35 33 32 31 30 28 20 17 9 5 6 8 14 16 17 13 14
1 2 2 3 3 5 7 10 12 14 16 18 19 20 21 25 28 30 29 29 30 29 29 27 29 32 34 30 30 31 31 24 12 14 8 5 10 9 8 17 18 18 13
3 2 2 3 3 6 8 11 11 14 17 18 18 18 20 22 25 28 28 28 27 28 28 28 26 28 28 29 28 28 24 16 13 12 14 15 16 18 17 18 18 21 18
1 2 2 3 4 6 8 11 11 13 15 17 17 18 19 20 23 26 28 27 25 26 27 26 25 24 24 26 26 27 25 26 27 23 18 22 24 21 15 14 14 16 17
2 1 2 4 4 6 8 10 10 13 14 18 17 19 18 20 23 26 27 26 26 26 26 25 25 22 22 28 26 26 26 27 30 33 29 22 19 15 15 18 18 18 20
2 3 2 3 4 5 8 11 13 15 16 18 21 21 18 20 24 24 24 24 24 26 27 26 27 27 31 30 30 27 27 22 25 26 24 20 19 21 20 21 17 18 19
3 3 3 3 4 6 9 10 12 15 14 16 18 19 19 21 20 19 21 22 22 23 25 25 28 28 32 34 34 32 29 26 26 21 22 24 23 22 20 20 19 22 25
4 4 3 2 3 5 7 11 15 15 17 18 19 17 17 17 17 18 20 22 21 23 23 26 28 29 31 33 35 35 34 35 34 32 28 28 27 26 22 17 20 28 30
5 6 5 2 2 3 6 8 11 14 18 19 20 17 16 17 17 19 22 24 21 23 23 26 27 28 30 31 33 34 35 36 36 35 33 32 32 31 33 28 22 30 42
5 6 4 2 2 3 4 6 9 12 13 16 15 15 15 16 17 18 22 23 22 23 25 25 25 27 29 30 32 34 35 35 37 36 36 35 35 35 36 37 44 43 45
3 4 1 1 1 3 4 5 7 10 13 14 15 16 14 13 14 17 20 20 21 24 25 27 25 27 30 30 32 34 32 35 36 36 35 36 37 37 38 35 42 43 43
4 2 2 1 4 4 6 7 6 10 12 12 13 17 17 14 15 15 17 19 21 23 25 26 26 27 30 30 32 32 32 34 35 35 35 36 37 37 38 36 42 42 42
1 1 1 4 3 5 4 8 8 11 13 12 15 14 13 14 13 15 16 18 20 22 23 25 26 28 30 31 32 32 31 32 33 34 34 34 36 38 38 37 39 41 40
1 1 2 3 3 2 4 8 9 13 14 13 14 15 13 13 14 15 16 17 19 20 22 24 25 28 30 31 31 31 31 32 33 33 34 34 35 36 36 37 38 39 39
2 3 3 5 6 6 9 8 12 14 13 11 12 12 11 11 13 15 15 16 18 20 21 23 25 27 30 30 30 30 31 33 32 31 31 33 35 36 35 37 38 38 37
3 4 4 6 8 8 10 12 14 12 11 10 10 10 10 11 12 14 14 16 17 19 20 22 24 26 28 29 29 31 31 32 32 32 31 32 34 35 35 36 36 37 36
3 3 4 6 9 11 13 13 12 11 10 9 8 10 11 12 11 12 14 17 17 17 18 21 24 26 28 30 31 32 33 34 33 34 33 33 33 35 35 35 36 35 36
6 6 8 9 10 12 14 10 9 8 8 8 7 9 9 10 10 11 13 16 18 16 17 20 23 25 26 28 31 33 33 34 33 34 34 34 34 33 35 34 35 35 34
Wind_Direction
153 148 146 143 134 119 99 70 47 32 32 27 21 15 12 7 6 5 4 359 358 356 355 353 352 352 352 351 346 343 341 337 330 325 325 327 325 321 318 318 318 317 317
157 151 146 136 135 125 97 49 38 32 33 26 20 18 15 7 3 2 3 2 359 357 356 357 358 358 355 352 349 346 342 340 333 323 321 321 320 323 324 317 317 319 319
155 152 145 139 127 103 61 47 41 36 27 23 18 13 9 9 4 3 2 3 1 1 3 4 1 360 359 355 354 350 349 345 340 330 319 319 317 318 316 321 318 315 315
150 147 135 109 93 78 61 46 35 34 28 19 17 12 11 9 6 1 1 5 6 7 8 6 6 7 3 1 0 359 358 357 355 351 331 315 312 311 321 320 320 323 315
144 132 108 93 84 69 59 45 38 32 23 23 22 19 14 10 6 2 5 7 9 9 9 10 12 10 5 9 8 6 7 11 15 16 313 303 308 315 322 334 327 325 324
132 123 104 86 75 65 41 29 28 27 26 27 22 18 12 7 8 6 8 11 10 13 12 13 14 11 8 11 13 14 16 20 25 38 29 291 298 331 346 339 339 324 313
130 114 94 81 65 31 29 30 29 21 25 21 20 19 16 15 13 9 10 14 14 14 15 15 16 14 9 12 14 17 24 29 34 35 13 17 29 19 352 352 359 3 337
154 107 78 64 29 24 21 21 20 17 21 20 19 20 18 17 15 12 13 15 17 19 18 18 20 17 14 18 22 26 29 32 33 37 37 32 31 15 352 344 359 357 356
252 338 39 34 32 29 18 15 14 11 16 18 22 19 19 18 14 13 16 19 18 20 21 25 26 23 20 25 29 30 32 35 42 39 30 16 298 293 23 25 24 10 314
294 320 4 34 32 21 11 9 11 11 14 16 18 20 22 16 16 15 18 19 19 22 22 31 30 28 26 32 31 30 30 34 27 23 8 10 33 29 20 36 29 22 2
323 358 30 37 33 15 6 2 8 10 11 13 21 23 23 21 17 15 18 20 22 21 22 26 31 30 34 32 32 32 35 36 36 37 40 39 38 35 36 35 31 24 12
50 40 45 35 18 9 5 2 7 10 10 9 14 18 19 22 17 15 16 18 22 23 24 29 29 33 35 36 36 37 38 36 36 40 43 40 37 39 37 31 24 16 15
81 75 61 23 26 9 4 360 7 3 2 7 12 12 16 17 15 13 14 19 22 25 25 30 31 36 39 35 38 40 41 40 34 28 33 40 41 39 35 32 25 21 21
110 101 83 67 25 23 5 6 7 9 11 8 5 10 12 12 9 14 18 24 25 23 20 28 29 31 27 30 33 38 39 45 41 39 39 41 39 37 35 32 23 15 16
112 111 102 31 25 18 4 2 3 3 8 7 11 2 360 3 13 19 20 21 24 21 18 27 25 26 19 16 18 24 30 37 38 40 40 37 38 36 32 29 26 24 25
130 132 111 73 27 12 6 4 5 9 11 11 9 17 16 17 22 22 18 18 19 15 20 19 18 20 16 13 9 9 16 16 20 24 31 32 32 32 30 23 26 27 26
136 137 129 98 36 17 5 10 5 5 7 12 21 32 27 21 19 17 12 5 17 18 16 14 16 17 15 13 10 7 6 6 8 11 18 22 23 24 23 27 26 27 15
135 142 135 79 75 14 13 7 10 6 7 3 17 27 31 23 20 17 8 7 16 13 10 10 15 14 12 12 8 4 2 4 2 2 5 10 14 15 16 16 4 9 1
144 147 140 151 41 1 354 359 359 360 356 2 4 5 15 22 18 14 6 11 10 7 8 6 13 12 8 8 5 1 5 1 1 2 2 5 5 7 8 16 1 347 3
130 102 92 44 337 341 347 348 359 357 357 4 1 354 2 7 9 16 12 16 7 6 7 5 10 10 7 6 4 2 4 2 3 4 2 3 1 2 3 11 360 351 356
123 94 352 342 337 337 346 345 350 360 358 353 350 2 5 9 20 15 14 11 7 7 7 6 9 9 7 5 3 2 4 3 5 4 4 5 2 356 355 4 360 356 357
217 290 312 324 317 325 338 346 350 349 348 355 357 2 7 11 14 11 15 11 9 9 9 8 9 8 7 4 2 2 3 2 3 4 3 3 2 360 359 355 356 356 357
250 292 305 322 323 321 333 334 337 342 351 356 360 5 11 13 13 9 13 14 11 9 13 11 10 8 6 5 6 5 2 1 4 7 6 4 360 358 359 353 353 353 356
294 266 296 326 334 325 330 335 340 343 348 352 357 5 11 17 11 11 14 11 10 10 15 14 13 10 7 7 7 4 3 1 4 5 8 5 2 359 356 353 351 351 353
277 303 299 311 326 326 327 331 337 348 355 358 3 4 3 360 15 21 17 9 10 15 18 16 12 10 8 6 2 360 357 354 358 359 2 5 3 358 357 355 351 352 354
305 310 317 317 320 326 332 334 335 341 348 356 13 6 8 7 19 21 16 10 6 19 23 17 13 12 10 7 3 358 356 352 352 353 356 358 360 1 360 357 355 357 357